When you browse on this site, cookies collect data to enhance your experience and personalize the content and advertising you see.
Visit our Privacy Policy to learn more. By continuing to use the site, you agree to this use of cookies and data.

Previsão horária em Folkern

Hoje, 4 Agosto, Terça-feira

Tempo Temperatura Precipitação Vento Pressão Humidade
00:00 +11°C° 0 mm 8 m/s 757 mmHg 88%
01:00 +11°C° 0.1 mm 9 m/s 756 mmHg 89%
02:00 +11°C° 0.1 mm 9 m/s 755 mmHg 89%
03:00 +11°C° 0.1 mm 10 m/s 755 mmHg 90%
04:00 +10°C° 0.3 mm 12 m/s 753 mmHg 90%
05:00 +10°C° 0.3 mm 13 m/s 752 mmHg 90%
06:00 +9°C° 0.3 mm 14 m/s 750 mmHg 90%
07:00 +9°C° 1.7 mm 15 m/s 750 mmHg 91%
08:00 +9°C° 1.7 mm 15 m/s 749 mmHg 92%
09:00 +10°C° 1.7 mm 16 m/s 748 mmHg 93%
10:00 +10°C° 1.7 mm 14 m/s 747 mmHg 93%
11:00 +10°C° 1.7 mm 12 m/s 746 mmHg 93%
12:00 +12°C° 1.7 mm 10 m/s 745 mmHg 93%
13:00 +12°C° 0.8 mm 9 m/s 745 mmHg 95%
14:00 +13°C° 0.8 mm 9 m/s 745 mmHg 96%
15:00 +13°C° 0.8 mm 8 m/s 745 mmHg 98%
16:00 +15°C° 0.4 mm 8 m/s 744 mmHg 98%
17:00 +15°C° 0.4 mm 8 m/s 744 mmHg 98%
18:00 +15°C° 0.4 mm 8 m/s 744 mmHg 98%
19:00 +15°C° 0.2 mm 8 m/s 744 mmHg 97%
20:00 +15°C° 0.2 mm 8 m/s 744 mmHg 97%
21:00 +13°C° 0.2 mm 9 m/s 745 mmHg 97%
22:00 +13°C° 0 mm 9 m/s 745 mmHg 97%
23:00 +13°C° 0 mm 9 m/s 745 mmHg 97%

Amanhã, 5 Agosto, Quarta-feira

Tempo Temperatura Precipitação Vento Pressão Humidade
00:00 +13°C° 0 mm 9 m/s 745 mmHg 97%
01:00 +13°C° 0 mm 9 m/s 745 mmHg 97%
02:00 +13°C° 0 mm 8 m/s 746 mmHg 97%
03:00 +13°C° 0 mm 8 m/s 746 mmHg 97%
04:00 +13°C° 0 mm 8 m/s 746 mmHg 97%
05:00 +13°C° 0 mm 8 m/s 746 mmHg 96%
06:00 +13°C° 0 mm 8 m/s 746 mmHg 96%
07:00 +13°C° 0.1 mm 8 m/s 747 mmHg 96%
08:00 +14°C° 0.1 mm 7 m/s 747 mmHg 96%
09:00 +14°C° 0.1 mm 7 m/s 748 mmHg 95%
10:00 +15°C° 0.1 mm 6 m/s 748 mmHg 94%
11:00 +15°C° 0.1 mm 6 m/s 748 mmHg 92%
12:00 +15°C° 0.1 mm 6 m/s 749 mmHg 91%
13:00 +15°C° 0 mm 5 m/s 749 mmHg 90%
14:00 +16°C° 0 mm 5 m/s 749 mmHg 88%
15:00 +17°C° 0 mm 4 m/s 750 mmHg 87%
16:00 +17°C° 0 mm 4 m/s 750 mmHg 86%
17:00 +15°C° 0 mm 4 m/s 751 mmHg 86%
18:00 +15°C° 0 mm 4 m/s 751 mmHg 85%
19:00 +14°C° 0 mm 4 m/s 752 mmHg 88%
20:00 +14°C° 0 mm 4 m/s 752 mmHg 91%
21:00 +13°C° 0 mm 4 m/s 753 mmHg 93%
22:00 +13°C° 0 mm 4 m/s 753 mmHg 92%
23:00 +13°C° 0 mm 4 m/s 753 mmHg 91%

Depois de amanhã, 6 Agosto, Quinta-feira

Tempo Temperatura Precipitação Vento Pressão Humidade
00:00 +13°C° 0 mm 5 m/s 754 mmHg 90%
01:00 +13°C° 0 mm 5 m/s 754 mmHg 89%
02:00 +13°C° 0 mm 5 m/s 755 mmHg 89%
03:00 +13°C° 0 mm 5 m/s 755 mmHg 88%
04:00 +13°C° 0 mm 6 m/s 755 mmHg 88%
05:00 +14°C° 0 mm 6 m/s 755 mmHg 88%
06:00 +14°C° 0 mm 6 m/s 755 mmHg 87%
07:00 +14°C° 0 mm 7 m/s 755 mmHg 85%
08:00 +15°C° 0 mm 7 m/s 756 mmHg 82%
09:00 +15°C° 0 mm 7 m/s 756 mmHg 79%
10:00 +16°C° 0 mm 7 m/s 756 mmHg 76%
11:00 +17°C° 0 mm 7 m/s 756 mmHg 72%
12:00 +18°C° 0 mm 7 m/s 756 mmHg 69%
13:00 +18°C° 0 mm 8 m/s 756 mmHg 69%
14:00 +20°C° 0 mm 8 m/s 756 mmHg 70%
15:00 +20°C° 0 mm 8 m/s 756 mmHg 71%
16:00 +20°C° 0 mm 8 m/s 755 mmHg 72%
17:00 +18°C° 0 mm 9 m/s 755 mmHg 74%
18:00 +18°C° 0 mm 9 m/s 755 mmHg 75%
19:00 +17°C° 0 mm 9 m/s 755 mmHg 79%
20:00 +16°C° 0 mm 9 m/s 755 mmHg 83%
21:00 +16°C° 0 mm 9 m/s 756 mmHg 87%
22:00 +16°C° 0.1 mm 9 m/s 756 mmHg 89%
23:00 +15°C° 0.1 mm 9 m/s 757 mmHg 90%

7 Agosto, Sexta-feira

Tempo Temperatura Precipitação Vento Pressão Humidade
00:00 +15°C° 0.1 mm 8 m/s 757 mmHg 92%
01:00 +15°C° 0.2 mm 7 m/s 757 mmHg 93%
02:00 +15°C° 0.2 mm 5 m/s 757 mmHg 93%
03:00 +15°C° 0.2 mm 4 m/s 758 mmHg 94%
04:00 +15°C° 0.5 mm 5 m/s 758 mmHg 94%
05:00 +15°C° 0.5 mm 5 m/s 758 mmHg 93%
06:00 +15°C° 0.5 mm 5 m/s 758 mmHg 93%
07:00 +15°C° 0.3 mm 6 m/s 758 mmHg 93%
08:00 +15°C° 0.3 mm 6 m/s 759 mmHg 93%
09:00 +15°C° 0.3 mm 6 m/s 759 mmHg 94%
10:00 +16°C° 0.2 mm 6 m/s 759 mmHg 91%
11:00 +16°C° 0.2 mm 7 m/s 759 mmHg 89%
12:00 +17°C° 0.2 mm 8 m/s 759 mmHg 86%
13:00 +18°C° 0.3 mm 7 m/s 759 mmHg 81%
14:00 +18°C° 0.3 mm 7 m/s 758 mmHg 76%
15:00 +20°C° 0.3 mm 6 m/s 758 mmHg 71%
16:00 +19°C° 1.3 mm 5 m/s 758 mmHg 73%
17:00 +19°C° 1.3 mm 4 m/s 758 mmHg 76%
18:00 +18°C° 1.3 mm 3 m/s 759 mmHg 79%
19:00 +17°C° 1.4 mm 4 m/s 759 mmHg 86%
20:00 +15°C° 1.4 mm 4 m/s 759 mmHg 92%
21:00 +14°C° 1.4 mm 5 m/s 759 mmHg 99%
22:00 +14°C° 0.8 mm 6 m/s 760 mmHg 99%
23:00 +14°C° 0.8 mm 7 m/s 760 mmHg 98%

8 Agosto, Sábado

Tempo Temperatura Precipitação Vento Pressão Humidade
00:00 +13°C° 0.8 mm 8 m/s 761 mmHg 98%
01:00 +12°C° 0 mm 8 m/s 761 mmHg 96%
02:00 +11°C° 0 mm 7 m/s 761 mmHg 93%
03:00 +11°C° 0 mm 7 m/s 762 mmHg 91%
04:00 +11°C° 0 mm 6 m/s 763 mmHg 91%
05:00 +11°C° 0 mm 6 m/s 763 mmHg 91%
06:00 +12°C° 0 mm 5 m/s 764 mmHg 91%
07:00 +12°C° 0 mm 5 m/s 764 mmHg 88%
08:00 +13°C° 0 mm 4 m/s 765 mmHg 85%
09:00 +13°C° 0 mm 3 m/s 765 mmHg 82%
10:00 +14°C° 0 mm 4 m/s 766 mmHg 79%
11:00 +14°C° 0 mm 4 m/s 766 mmHg 76%
12:00 +15°C° 0 mm 4 m/s 767 mmHg 73%
13:00 +15°C° 0 mm 4 m/s 767 mmHg 73%
14:00 +14°C° 0 mm 4 m/s 767 mmHg 73%
15:00 +14°C° 0 mm 4 m/s 767 mmHg 74%
16:00 +14°C° 0 mm 3 m/s 768 mmHg 76%
17:00 +14°C° 0 mm 3 m/s 768 mmHg 78%
18:00 +15°C° 0 mm 2 m/s 768 mmHg 80%
19:00 +14°C° 0 mm 2 m/s 769 mmHg 84%
20:00 +13°C° 0 mm 1 m/s 769 mmHg 88%
21:00 +12°C° 0 mm 1 m/s 769 mmHg 92%
22:00 +11°C° 0 mm 1 m/s 769 mmHg 92%
23:00 +11°C° 0 mm 1 m/s 769 mmHg 91%

9 Agosto, Domingo

Tempo Temperatura Precipitação Vento Pressão Humidade
00:00 +10°C° 0 mm 0 m/s 770 mmHg 91%
01:00 +10°C° 0 mm 0 m/s 769 mmHg 91%
02:00 +10°C° 0 mm 0 m/s 769 mmHg 90%
03:00 +9°C° 0 mm 0 m/s 769 mmHg 90%
04:00 +11°C° 0 mm 1 m/s 769 mmHg 88%
05:00 +11°C° 0 mm 1 m/s 769 mmHg 87%
06:00 +11°C° 0 mm 1 m/s 769 mmHg 86%
07:00 +13°C° 0 mm 1 m/s 769 mmHg 80%
08:00 +14°C° 0 mm 1 m/s 769 mmHg 74%
09:00 +16°C° 0 mm 2 m/s 769 mmHg 68%
10:00 +16°C° 0 mm 2 m/s 769 mmHg 66%
11:00 +17°C° 0 mm 2 m/s 769 mmHg 63%
12:00 +17°C° 0 mm 2 m/s 769 mmHg 61%
13:00 +17°C° 0 mm 2 m/s 768 mmHg 60%
14:00 +18°C° 0 mm 1 m/s 768 mmHg 59%
15:00 +18°C° 0 mm 1 m/s 767 mmHg 57%
16:00 +18°C° 0 mm 1 m/s 767 mmHg 61%
17:00 +18°C° 0 mm 1 m/s 767 mmHg 64%
18:00 +16°C° 0 mm 1 m/s 767 mmHg 68%
19:00 +15°C° 0 mm 1 m/s 767 mmHg 72%
20:00 +14°C° 0 mm 2 m/s 767 mmHg 77%
21:00 +13°C° 0 mm 2 m/s 767 mmHg 82%
22:00 +13°C° 0 mm 2 m/s 767 mmHg 81%
23:00 +12°C° 0 mm 2 m/s 767 mmHg 80%
Mostrar mais